FW1308 Weather Reports


Display with metric or nautical units.
time (UTC)temp
F
wind
direction
speed
MPH
gust
MPH
rain 1hr
in
rain 24hr
in
rain mn
in
humidity
%
barometer
mb
20260506001515 46 15 0.0 4.0 0.00 0.00 0.00 76 1016.0
20260506000013 46 49 1.0 5.0 0.00 0.00 0.00 76 1015.8
20260505234511 46 43 0.0 5.0 0.00 0.00 0.00 75 1015.9
20260505233007 47 10 0.0 4.0 0.00 0.00 0.00 76 1016.0
20260505231504 47 355 1.0 5.0 0.00 0.00 0.00 76 1016.0
20260505230101 47 83 0.0 2.0 0.00 0.00 0.00 78 1016.1
20260505224600 47 19 1.0 5.0 0.00 0.00 0.00 79 1016.0
20260505223059 47 40 1.0 7.0 0.00 0.00 0.00 79 1016.0
20260505221559 48 90 0.0 6.0 0.00 0.00 0.00 79 1016.0
20260505220057 48 79 1.0 6.0 0.00 0.00 0.00 79 1015.8
20260505214600 48 72 0.0 5.0 0.00 0.00 0.00 79 1015.9
20260505213055 49 73 0.0 9.0 0.00 0.00 0.00 78 1015.9
20260505211609 49 57 0.0 5.0 0.00 0.00 0.00 78 1015.7
20260505210059 49 4 3.0 8.0 0.00 0.00 0.00 76 1015.7
20260505204601 50 76 0.0 5.0 0.00 0.00 0.00 75 1015.6
20260505203058 50 36 1.0 5.0 0.00 0.00 0.00 75 1015.5
20260505201559 50 348 1.0 6.0 0.00 0.00 0.00 75 1015.4
20260505200052 51 35 1.0 6.0 0.00 0.00 0.00 81 1015.3
20260505194607 51 142 1.0 3.0 0.00 0.00 0.00 81 1015.0
20260505193052 51 53 0.0 4.0 0.00 0.00 0.00 80 1015.0
20260505191551 51 22 1.0 5.0 0.00 0.00 0.00 79 1014.8
20260505190051 52 115 2.0 6.0 0.00 0.00 0.00 79 1014.7
20260505184550 52 68 0.0 5.0 0.00 0.00 0.00 78 1014.6
20260505183048 52 5 0.0 7.0 0.00 0.00 0.00 78 1014.5
20260505181552 53 81 2.0 8.0 0.00 0.00 0.00 77 1014.3
20260505180046 54 23 2.0 10.0 0.00 0.00 0.00 76 1014.2
20260505174553 56 44 0.0 3.0 0.00 0.00 0.00 64 1014.1
20260505173045 56 55 0.0 4.0 0.00 0.00 0.00 64 1014.0
20260505171545 57 25 1.0 5.0 0.00 0.00 0.00 62 1014.1
20260505170044 57 80 0.0 4.0 0.00 0.00 0.00 62 1014.0
20260505164601 58 304 0.0 4.0 0.00 0.00 0.00 62 1013.9
20260505163051 58 245 0.0 3.0 0.00 0.00 0.00 59 1013.9
20260505161541 59 62 1.0 4.0 0.00 0.00 0.00 58 1013.9
20260505153038 59 67 1.0 4.0 0.00 0.00 0.00 56 1014.0
20260505151537 59 63 0.0 5.0 0.00 0.00 0.00 58 1013.9
20260505124522 58 39 0.0 6.0 0.00 0.00 0.00 61 1014.3
20260505123021 58 56 0.0 2.0 0.00 0.00 0.00 62 1014.3
20260505121519 58 72 0.0 3.0 0.00 0.00 0.00 63 1014.3
20260505120011 57 156 0.0 4.0 0.00 0.00 0.00 65 1014.4
20260505114536 57 113 1.0 4.0 0.00 0.00 0.00 64 1014.3
20260505113036 57 256 0.0 5.0 0.00 0.00 0.00 65 1014.4
20260505111538 57 358 0.0 3.0 0.00 0.00 0.00 65 1014.4
20260505101528 57 159 0.0 4.0 0.00 0.00 0.00 67 1014.8
20260505100030 58 262 0.0 5.0 0.00 0.00 0.00 67 1014.7
20260505094524 57 214 0.0 6.0 0.00 0.00 0.00 69 1014.8
20260505093022 56 253 2.0 4.0 0.00 0.00 0.00 69 1014.8
20260505091517 56 41 1.0 3.0 0.00 0.00 0.00 72 1014.8
20260505090013 54 60 0.0 5.0 0.00 0.00 0.00 74 1014.9
20260505084518 54 271 1.0 4.0 0.00 0.00 0.00 74 1015.0
20260505083014 54 278 2.0 4.0 0.00 0.00 0.00 74 1015.1
20260505081510 53 239 0.0 6.0 0.00 0.00 0.00 78 1015.3
20260505080006 51 232 1.0 4.0 0.00 0.00 0.00 80 1015.4
20260505074506 51 275 1.0 4.0 0.00 0.00 0.00 79 1015.3
20260505073001 50 255 0.0 2.0 0.00 0.00 0.00 83 1015.2
20260505071617 49 257 0.0 2.0 0.00 0.00 0.00 84 1015.1
20260505070111 48 258 1.0 3.0 0.00 0.00 0.00 85 1015.2
20260505064600 48 263 1.0 3.0 0.00 0.00 0.00 85 1015.3
20260505063056 48 254 0.0 5.0 0.00 0.00 0.00 85 1015.3
20260505061558 46 261 1.0 4.0 0.00 0.00 0.00 88 1015.3
20260505060053 45 250 0.0 3.0 0.00 0.00 0.00 89 1015.3
20260505054556 45 257 0.0 2.0 0.00 0.00 0.00 89 1015.5
20260505053100 45 241 0.0 4.0 0.00 0.00 0.00 89 1015.4
20260505051549 45 255 0.0 2.0 0.00 0.00 0.00 90 1015.5
20260505041546 44 261 0.0 2.0 0.00 0.00 0.00 92 1015.1
20260505040044 45 260 0.0 3.0 0.00 0.00 0.00 93 1014.9
20260505034541 45 260 0.0 1.0 0.00 0.01 0.00 94 1015.0
20260505033045 45 250 1.0 2.0 0.00 0.01 0.00 94 1014.9
20260505031539 45 242 0.0 0.0 0.00 0.01 0.00 95 1014.9
20260505030038 45 238 0.0 0.0 0.00 0.01 0.00 95 1015.0
20260505024535 45 238 0.0 0.0 0.00 0.01 0.00 94 1015.1
20260505023033 46 238 0.0 0.0 0.00 0.01 0.00 94 1015.0
20260505021531 46 238 0.0 0.0 0.00 0.01 0.00 93 1015.1
20260505020029 47 238 0.0 0.0 0.00 0.01 0.00 93 1015.2
20260505014528 48 238 0.0 0.0 0.00 0.01 0.00 93 1015.2
20260505013026 48 238 0.0 2.0 0.00 0.01 0.00 93 1015.4
20260505011528 48 177 0.0 0.0 0.00 0.01 0.00 93 1015.5
20260505010024 48 177 0.0 0.0 0.00 0.01 0.00 94 1015.5
20260505004525 48 177 0.0 0.0 0.00 0.01 0.00 94 1015.6
20260505003021 48 154 0.0 0.0 0.00 0.01 0.00 94 1015.8